TimeEDT,TemperatureF,Dew PointF,Humidity,Sea Level PressureIn,VisibilityMPH,Wind Direction,Wind SpeedMPH,Gust SpeedMPH,PrecipitationIn,Events,Conditions,WindDirDegrees,DateUTC
12:53 AM,77.0,70.0,79,30.04,10.0,East,10.4,-,N/A,,Clear,100,2013-10-03 04:53:00
1:53 AM,75.9,70.0,82,30.02,10.0,East,8.1,-,N/A,,Clear,90,2013-10-03 05:53:00
2:53 AM,75.9,70.0,82,29.99,10.0,East,8.1,-,N/A,,Clear,80,2013-10-03 06:53:00
3:53 AM,75.0,70.0,84,29.97,10.0,ENE,8.1,-,N/A,,Clear,70,2013-10-03 07:53:00
4:53 AM,73.9,70.0,87,29.96,10.0,East,8.1,-,N/A,,Clear,90,2013-10-03 08:53:00
5:53 AM,73.9,70.0,87,29.97,10.0,East,6.9,-,N/A,,Clear,80,2013-10-03 09:53:00
6:53 AM,73.9,69.1,85,29.98,10.0,East,6.9,-,N/A,,Clear,80,2013-10-03 10:53:00
7:53 AM,73.9,70.0,87,30.01,10.0,East,5.8,-,N/A,,Clear,80,2013-10-03 11:53:00
8:53 AM,77.0,70.0,79,30.03,10.0,East,9.2,-,N/A,,Clear,90,2013-10-03 12:53:00
9:53 AM,81.0,69.1,67,30.05,10.0,East,10.4,-,N/A,,Clear,90,2013-10-03 13:53:00
10:53 AM,82.0,69.1,65,30.05,10.0,East,10.4,-,N/A,,Clear,90,2013-10-03 14:53:00
11:53 AM,86.0,71.1,61,30.05,10.0,East,10.4,-,N/A,,Clear,80,2013-10-03 15:53:00
12:53 PM,87.1,71.1,59,30.04,10.0,East,6.9,-,N/A,,Clear,90,2013-10-03 16:53:00
1:53 PM,88.0,70.0,55,30.02,10.0,East,8.1,-,N/A,,Partly Cloudy,90,2013-10-03 17:53:00
2:53 PM,90.0,69.1,50,30.00,10.0,SE,5.8,-,N/A,,Partly Cloudy,130,2013-10-03 18:53:00
3:53 PM,86.0,75.0,70,29.98,10.0,WSW,10.4,-,N/A,,Partly Cloudy,240,2013-10-03 19:53:00
4:53 PM,86.0,73.9,67,29.98,10.0,West,9.2,-,N/A,,Partly Cloudy,280,2013-10-03 20:53:00
5:53 PM,84.0,73.9,72,29.99,10.0,West,4.6,-,N/A,,Overcast,280,2013-10-03 21:53:00
6:53 PM,82.9,73.9,74,29.99,10.0,SW,5.8,-,N/A,,Overcast,230,2013-10-03 22:53:00
7:53 PM,80.1,73.0,79,30.00,10.0,SE,6.9,-,N/A,,Partly Cloudy,140,2013-10-03 23:53:00
8:53 PM,78.1,73.0,84,30.01,10.0,Calm,Calm,-,N/A,,Clear,0,2013-10-04 00:53:00
9:53 PM,78.1,73.0,84,30.03,10.0,Calm,Calm,-,N/A,,Scattered Clouds,0,2013-10-04 01:53:00
10:53 PM,79.0,72.0,79,30.04,10.0,Calm,Calm,-,N/A,,Partly Cloudy,0,2013-10-04 02:53:00